Regional Weather Roundup
Issued by NWS

Home | Current Version | Previous Version | Graphics & Text | Print | Product List | Glossary On
Versions: 1 2 3 4 5 6 7 8 9 10 11 12 13 14 15 16 17 18 19 20 21 22 23 24 25 26 27 28 29 30 31 32 33 34 35 36 37 38 39 40 41 42 43 44 45 46 47 48 49 50
000
ASUS43 KLOT 301112
RWRIL

ILLINOIS REGIONAL WEATHER ROUNDUP
NATIONAL WEATHER SERVICE CHICAGO/ROMEOVILLE IL
600 AM CDT SAT MAY 30 2015

NOTE: "FAIR" INDICATES FEW OR NO CLOUDS BELOW 12,000 FEET WITH NO
SIGNIFICANT WEATHER AND/OR OBSTRUCTIONS TO VISIBILITY.

* THESE STATIONS ARE NOT UNDER NWS QUALITY CONTROL. THEY ALSO MAY NOT
  REPORT WEATHER SUCH AS PRECIPITATION OR FOG.

ILZ001-002-007-009-015-016-024-301200-
NORTHWEST ILLINOIS

CITY           SKY/WX    TMP DP  RH WIND       PRES   REMARKS
MOLINE         LGT RAIN  66  62  87 SW6       29.95R
STERLING*      CLOUDY    66  63  88 CALM      29.96R
SAVANNA*       CLOUDY    68  62  83 SW5       29.95R
$$

ILZ003-004-008-010-011-017-018-301200-
NORTH CENTRAL ILLINOIS

CITY           SKY/WX    TMP DP  RH WIND       PRES   REMARKS
ROCKFORD       LGT RAIN  66  63  90 SW3       29.96R
FREEPORT*      DRIZZLE   64  63  94 SW5       29.96S
ROCHELLE*      LGT RAIN  65  64  98 CALM      29.97R
DE KALB*       DRIZZLE   64  61  90 W7        29.98R
PERU*          RAIN      66  64  92 CALM      29.97S
$$

ILZ005-006-012>014-019>023-301200-
NORTHEAST ILLINOIS

CITY           SKY/WX    TMP DP  RH WIND       PRES   REMARKS
CHICAGO-OHARE  LGT RAIN  68  65  90 SW5       29.96R
CHICAGO-MIDWAY LGT RAIN  70  67  90 SW6       29.97R
AURORA         CLOUDY    68  63  84 SW7       29.97R
LANSING*       LGT RAIN  67  65  90 CALM      29.97S
JOLIET*        DRIZZLE   69  68  96 CALM      29.97R
WAUKEGAN       LGT RAIN  67  64  90 CALM      29.95R
DUPAGE AIRPORT LGT RAIN  68  64  87 SW5       29.96R
KANKAKEE*      CLOUDY    67  66  96 SW3       29.99R
WHEELING       LGT RAIN  69  64  84 CALM      29.97R
MORRIS*        LGT RAIN  67  66  95 SW5       29.96R
ROMEOVILLE*    DRIZZLE   67  66  97 W6        29.97R
NORTHERLY ISL    N/A     70  65  84 SW5         N/A
$$

LMZ740>746-301200-
SOUTHERN LAKE MICHIGAN

STATION/POSITION SKY/WX   TEMP    WIND        PRES    VSBY  WAVE
                          AIR SEA DIR/SP/G                  HT/PER
                          (F)     (DEG/KT/KT) (MB)    (MI)  (FT/S)
SOUTHERN BUOY              47 38  230/  4/  6 1014.7R         1
HARRISON CRIB              69     250/ 10/ 14   N/A
BURNHAM HARBOR             69     210/  3/  7   N/A
CALUMET HARBOR             68     220/  4/  7   N/A
BURNS HARBOR               69     210/ 10/ 14 1015.2R
MICHIGAN CITY              68     180/ 11/ 12   N/A
MICHIGAN CITY 6N           62 56  220/  8/  8   N/A           1
ST. JOSEPH                 61 58  250/  8/ 10   N/A           1/ 3
$$

ILZ025>027-034>036-040-047-049-050-058-095>099-301200-
WEST-CENTRAL ILLINOIS

CITY           SKY/WX    TMP DP  RH WIND       PRES   REMARKS
QUINCY         LGT RAIN  65  64  97 CALM      29.96S
GALESBURG*     RAIN      64  63  97 S3        29.97R
MACOMB*        LGT RAIN  64  64  99 CALM      29.99S
JACKSONVILLE*  CLOUDY    67  66  95 SE3       29.97R
PITTSFIELD*    CLOUDY    66  64  93 CALM      29.96F
$$

ILZ028>032-037-038-041>044-048-051>054-059>061-301200-
CENTRAL ILLINOIS

CITY           SKY/WX    TMP DP  RH WIND       PRES   REMARKS
PONTIAC        RAIN      68  66  94 CALM      29.98S
BLOOMINGTON    LGT RAIN  66  65  97 CALM      29.99S
DECATUR        CLOUDY    67  65  93 E8        29.97S
PEORIA         CLOUDY    68  64  87 CALM      29.97R
LACON*         LGT RAIN  65  64  94 CALM      29.96R
LINCOLN*       LGT RAIN  66  65  94 CALM      29.94F
SPRINGFIELD    CLOUDY    67  65  93 NE3       29.96S
TAYLORVILLE    HVY RAIN  64  64 100 NE3       29.97R
$$

ILZ033-039-045-046-055>057-062-063-301200-
EAST-CENTRAL ILLINOIS

CITY           SKY/WX    TMP DP  RH WIND       PRES   REMARKS
CHAMPAIGN      RAIN      68  66  93 CALM      29.99S FOG
DANVILLE*      CLOUDY    68  64  89 S3        29.98R
RANTOUL*       RAIN      69  67  95 CALM      30.00R
MATTOON        MOCLDY    66  65  96 CALM      29.97S
PARIS*         CLOUDY    68  65  91 E3        30.00S
$$

ILZ079-100>102-301200-
SOUTHWEST ILLINOIS

CITY           SKY/WX    TMP DP  RH WIND       PRES   REMARKS
ALTON          LGT RAIN  68  68 100 CALM      29.95F
BELLEVILLE     CLOUDY    68  68 100 S1        29.94R FOG
CAHOKIA*       CLOUDY    69  67  93 CALM      29.94S FOG
SPARTA*        CLOUDY    69  68  97 S3        29.96R
$$

ILZ064>066-069>071-074>076-080>082-084>086-088>090-092>094-301200-
SOUTH-CENTRAL ILLINOIS

CITY           SKY/WX    TMP DP  RH WIND       PRES   REMARKS
CARBONDALE     MOCLDY    70  68  93 S5        29.95S
CAIRO*         CLOUDY    73  68  85 S8        29.96S
EFFINGHAM*     MOCLDY    68  65  89 SE7       29.98S
MARION         PTCLDY    72  68  88 S6        29.97S
MT. VERNON     CLOUDY    70  64  83 S3        29.97S
CENTRALIA*     MOCLDY    69  67  93 S6        29.95F
SALEM*         MOCLDY    70  67  89 SE5       29.97R
METROPOLIS*    MOCLDY    71  71 100 CALM      29.98R
$$

ILZ067-068-072-073-078-083-087-091-301200-
SOUTHEAST ILLINOIS

CITY           SKY/WX    TMP DP  RH WIND       PRES   REMARKS
LAWRENCEVILLE  PTCLDY    70  67  90 S8        29.99S
FLORA*         PTCLDY    68  66  96 SE5       29.97S
FAIRFIELD*     PTCLDY    71  68  90 S6        29.96S
HARRISBURG*    PTCLDY    73  68  84 S7        29.99R
ROBINSON*      MOCLDY    69  66  92 S5        30.00S
CARMI*         MOCLDY    70  64  83 SE8       29.98S
$$

ABBREVIATIONS USED IN REMARKS
   TC - TEMPERATURE IN CELSIUS
  WCI - WIND CHILL INDEX
   HX - HEAT INDEX
  VSB - VISIBILITY
$$




USA.gov is the U.S. government's official web portal to all federal, state and local government web resources and services.